sat.trackr.live / text

‹ back to catalog

TRANSPORTER-14 OBJECT V

NORAD 64547 · 2025-135V

PAYLOAD ACTIVE UNKNOWN

§ Identity

Operator
Country
TBD
Launch date
2025-06-23
Launch site
AFWTR
Launch vehicle
Mass (kg)
RCS (m²)

External: N2YO · Heavens-Above · Gunter

§ Orbital elements

Epoch: 2026-09-21T20:28:01.858656Z

Period
94.34 min
Inclination
97.4702°
Eccentricity
0.0000689
Mean motion
15.26398788 rev/d
Perigee alt
486.1 km
Apogee alt
487.1 km
Semi-major
6,864.7 km
B*
2.2576e-4
RAAN
20.4678°
Arg perigee
118.6529°
Mean anomaly
241.4778°
Rev number
6,966

§ Raw data

TRANSPORTER-14 OBJECT V1 64547U 25135V   26264.85279929  .00005801  00000+0  22576-3 0  99912 64547  97.4702  20.4678 0000689 118.6529 241.4778 15.26398788 69666

JSON: /api/v1/satellites/64547 · /tle

For live sub-satellite position, see the globe view (requires WebGL).

§ Visibility from observer

Set your observer location to see the next 7 days of passes ≥ 10°. The values pass through the URL so the page stays shareable.

No JS? Fill the form by hand. The geolocation button needs JavaScript.